Date String (YYYY-MM-DD hh:mm:ss) UTC,Instrument flags,absolute air pressure of the measurement (hPa),sample flow rate (lpm),inlet stack bypass flow (lpm),air temperature of the measurement (°C),ambient temperature measured by the external sensor (°C),aerosol sample conditioner tube jacket temperature (°C),OPC LED temperature (°C),internal box temperature (°C),relative humidity of the measurement (%),span deviation,mass concentration of particles derived from Lorenz-Mie calculation of OPC scattering (μg/m³),mass concentration of particles derived from Lorenz-Mie calculation of OPC scattering (μg/m³),mass concentration of particles derived from Lorenz-Mie calculation of OPC scattering (μg/m³)
DateTimeUTC,F1_M11,P_M11,Q1_M11,Q2_M11,T1_M11,T2_M11,T3_M11,T4_M11,T5_M11,U1_M11,ZSPAN_M11,X2_M11,X0_M11,X1_M11
2023-08-16 11:00:00,SystemResetWarning,0833.2,5.00,000.00,029.7,028.6,000.0,038.2,031.4,18.0,0000.0,0003.91,0006.63,0003.61
2023-08-16 11:01:00,SystemResetWarning,0833.2,5.00,000.00,029.7,028.1,000.0,038.2,031.3,18.0,0000.0,0003.91,0007.22,0003.60
2023-08-16 11:02:00,SystemResetWarning,0833.2,5.00,000.00,029.7,026.2,000.0,038.0,031.0,18.0,0000.0,0003.92,0007.82,0003.60
2023-08-16 11:03:00,SystemResetWarning,0833.1,5.02,000.00,029.6,025.5,000.0,037.9,030.8,18.2,0000.0,0003.89,0008.44,0003.59
2023-08-16 11:04:00,SystemResetWarning,0833.1,5.00,000.00,029.5,025.7,000.0,037.9,030.6,18.3,0000.0,0003.90,0008.49,0003.59
2023-08-16 11:05:00,SystemResetWarning,0833.0,5.00,000.00,029.4,026.0,000.0,038.0,030.6,18.3,0000.0,0003.90,0008.47,0003.59
2023-08-16 11:06:00,SystemResetWarning,0833.0,5.00,000.00,029.4,026.4,000.0,038.0,030.7,18.4,0000.0,0003.90,0008.27,0003.59
2023-08-16 11:07:00,SystemResetWarning,0833.1,5.00,000.00,029.4,026.7,000.0,038.0,030.8,18.4,0000.0,0003.87,0008.16,0003.59
2023-08-16 11:08:00,SystemResetWarning,0833.1,5.00,000.00,029.4,027.0,000.0,038.0,030.9,18.4,0000.0,0003.89,0008.18,0003.61
2023-08-16 11:09:00,SystemResetWarning,0833.2,5.00,000.00,029.4,027.3,000.0,038.0,030.9,18.4,0000.0,0003.92,0008.25,0003.61
2023-08-16 11:10:00,SystemResetWarning,0833.1,5.00,000.00,029.4,027.5,000.0,038.0,031.0,18.4,0000.0,0003.94,0008.31,0003.62
2023-08-16 11:11:00,SystemResetWarning,0833.2,5.00,000.00,029.4,027.7,000.0,038.0,031.0,18.4,0000.0,0003.94,0008.26,0003.62
2023-08-16 11:12:00,SystemResetWarning,0833.0,5.00,000.00,029.4,027.8,000.0,038.0,031.1,18.4,0000.0,0003.91,0007.82,0003.62
2023-08-16 11:13:00,SystemResetWarning,0833.4,5.00,000.00,029.5,027.9,000.0,038.0,031.1,18.5,0000.0,0003.89,0007.08,0003.62
2023-08-16 11:14:00,SystemResetWarning,0833.2,4.99,000.00,029.5,028.0,000.0,038.0,031.1,18.5,0000.0,0003.92,0005.95,0003.63
2023-08-16 11:15:00,SystemResetWarning,0833.1,4.99,000.00,029.5,028.1,000.0,038.0,031.2,18.5,0000.0,0003.95,0005.98,0003.63
2023-08-16 11:16:00,SystemResetWarning,0833.1,4.99,000.00,029.5,028.2,000.0,038.1,031.2,18.5,0000.0,0003.96,0006.02,0003.64
2023-08-16 11:17:00,SystemResetWarning,0833.1,5.01,000.00,029.6,028.3,000.0,038.1,031.2,18.5,0000.0,0003.99,0006.19,0003.64
2023-08-16 11:18:00,SystemResetWarning,0833.0,5.01,000.00,029.6,028.3,000.0,038.1,031.3,18.5,0000.0,0004.03,0006.94,0003.64
2023-08-16 11:19:00,SystemResetWarning,0833.0,5.00,000.00,029.6,028.4,000.0,038.1,031.3,18.5,0000.0,0004.02,0007.47,0003.63
2023-08-16 11:20:00,SystemResetWarning,0833.0,4.99,000.00,029.6,028.4,000.0,038.1,031.3,18.5,0000.0,0004.01,0007.41,0003.63
2023-08-16 11:21:00,SystemResetWarning,0833.0,4.99,000.00,029.7,028.5,000.0,038.1,031.3,18.6,0000.0,0004.00,0007.39,0003.63
2023-08-16 11:22:00,SystemResetWarning,0833.1,5.00,000.00,029.7,028.5,000.0,038.2,031.4,18.6,0000.0,0004.01,0007.38,0003.63
2023-08-16 11:23:00,SystemResetWarning,0833.1,5.00,000.00,029.7,028.5,000.0,038.2,031.4,18.7,0000.0,0004.04,0007.45,0003.63
2023-08-16 11:24:00,SystemResetWarning,0833.2,5.00,000.00,029.7,028.6,000.0,038.2,031.4,18.7,0000.0,0004.04,0007.51,0003.62
2023-08-16 11:25:00,SystemResetWarning,0833.2,5.00,000.00,029.8,028.6,000.0,038.2,031.4,18.7,0000.0,0004.02,0007.47,0003.62
2023-08-16 11:26:00,SystemResetWarning,0833.2,5.00,000.00,029.8,028.3,000.0,038.2,031.4,18.7,0000.0,0004.00,0007.48,0003.61
2023-08-16 11:27:00,SystemResetWarning,0833.1,5.00,000.00,029.8,026.4,000.0,038.1,031.2,18.8,0000.0,0003.98,0007.73,0003.60
2023-08-16 11:28:00,SystemResetWarning,0833.1,5.00,000.00,029.7,025.7,000.0,038.0,031.0,18.9,0000.0,0003.98,0007.79,0003.59
2023-08-16 11:29:00,SystemResetWarning,0833.0,5.01,000.00,029.6,025.8,000.0,038.0,030.8,19.0,0000.0,0003.95,0007.45,0003.59
2023-08-16 11:30:00,SystemResetWarning,0833.5,5.00,000.00,029.5,026.1,000.0,038.0,030.8,19.2,0000.0,0003.92,0006.82,0003.59
2023-08-16 11:31:00,SystemResetWarning,0833.1,5.00,000.00,029.5,026.5,000.0,038.0,030.8,19.3,0000.0,0003.94,0007.98,0003.59
2023-08-16 11:32:00,SystemResetWarning,0833.1,4.99,000.00,029.5,026.8,000.0,038.1,030.9,19.4,0000.0,0003.94,0007.97,0003.58
2023-08-16 11:33:00,SystemResetWarning,0833.1,4.99,000.00,029.5,027.1,000.0,038.1,031.0,19.5,0000.0,0003.95,0008.00,0003.57
2023-08-16 11:34:00,SystemResetWarning,0833.2,5.00,000.00,029.5,027.4,000.0,038.1,031.0,19.6,0000.0,0003.93,0008.00,0003.57
2023-08-16 11:35:00,SystemResetWarning,0833.2,5.00,000.00,029.5,027.6,000.0,038.1,031.1,19.7,0000.0,0003.90,0007.92,0003.57
2023-08-16 11:36:00,SystemResetWarning,0833.2,5.00,000.00,029.5,027.8,000.0,038.1,031.1,19.7,0000.0,0003.89,0007.89,0003.57
2023-08-16 11:37:00,SystemResetWarning,0833.2,5.01,000.00,029.5,027.9,000.0,038.1,031.1,19.7,0000.0,0003.88,0007.83,0003.56
2023-08-16 11:38:00,SystemResetWarning,0833.2,5.00,000.00,029.5,028.1,000.0,038.1,031.2,19.7,0000.0,0003.87,0007.62,0003.57
2023-08-16 11:39:00,SystemResetWarning,0833.1,5.00,000.00,029.6,028.2,000.0,038.1,031.2,19.7,0000.0,0003.84,0007.33,0003.56
2023-08-16 11:40:00,SystemResetWarning,0833.1,4.99,000.00,029.6,028.2,000.0,038.1,031.3,19.7,0000.0,0003.83,0007.19,0003.55
2023-08-16 11:41:00,SystemResetWarning,0833.1,4.99,000.00,029.6,028.3,000.0,038.2,031.3,19.7,0000.0,0003.85,0007.34,0003.55
2023-08-16 11:42:00,SystemResetWarning,0833.1,5.00,000.00,029.7,028.4,000.0,038.2,031.3,19.7,0000.0,0003.82,0005.83,0003.55
2023-08-16 11:43:00,SystemResetWarning,0833.1,5.01,000.00,029.7,028.4,000.0,038.2,031.3,19.8,0000.0,0003.82,0005.73,0003.54
2023-08-16 11:44:00,SystemResetWarning,0833.1,5.01,000.00,029.7,028.5,000.0,038.2,031.4,19.8,0000.0,0003.82,0005.78,0003.54
2023-08-16 11:45:00,SystemResetWarning,0833.1,5.01,000.00,029.7,028.5,000.0,038.2,031.4,19.7,0000.0,0003.82,0005.73,0003.55
2023-08-16 11:46:00,SystemResetWarning,0833.1,4.99,000.00,029.8,028.5,000.0,038.2,031.4,19.7,0000.0,0003.83,0005.75,0003.55
2023-08-16 11:47:00,SystemResetWarning,0833.3,4.98,000.00,029.8,026.9,000.0,038.1,031.2,19.8,0000.0,0003.84,0005.75,0003.55
2023-08-16 11:48:00,SystemResetWarning,0833.0,5.01,000.00,029.7,025.7,000.0,038.0,030.9,19.9,0000.0,0003.84,0005.92,0003.56
2023-08-16 11:49:00,SystemResetWarning,0833.2,5.02,000.00,029.6,025.8,000.0,038.0,030.8,20.0,0000.0,0003.85,0006.18,0003.56
2023-08-16 11:50:00,SystemResetWarning,0833.2,5.00,000.00,029.5,026.1,000.0,038.0,030.7,20.2,0000.0,0003.90,0006.43,0003.57
2023-08-16 11:51:00,SystemResetWarning,0833.1,5.00,000.00,029.4,026.4,000.0,038.0,030.8,20.3,0000.0,0003.92,0006.59,0003.58
2023-08-16 11:52:00,SystemResetWarning,0833.4,5.00,000.00,029.4,026.7,000.0,038.0,030.9,20.4,0000.0,0003.90,0006.98,0003.58
2023-08-16 11:53:00,SystemResetWarning,0832.9,4.99,000.00,029.4,027.1,000.0,038.1,030.9,20.4,0000.0,0003.91,0007.76,0003.58
2023-08-16 11:54:00,SystemResetWarning,0833.0,5.00,000.00,029.5,027.3,000.0,038.1,031.0,20.5,0000.0,0003.92,0008.32,0003.58
2023-08-16 11:55:00,SystemResetWarning,0833.0,5.00,000.00,029.5,027.6,000.0,038.1,031.0,20.5,0000.0,0003.94,0008.62,0003.58
2023-08-16 11:56:00,SystemResetWarning,0833.3,5.00,000.00,029.5,027.7,000.0,038.1,031.1,20.5,0000.0,0003.94,0008.71,0003.58
2023-08-16 11:57:00,SystemResetWarning,0833.0,5.01,000.00,029.5,027.9,000.0,038.1,031.1,20.5,0000.0,0003.95,0008.86,0003.58
2023-08-16 11:58:00,SystemResetWarning,0833.2,5.00,000.00,029.5,028.0,000.0,038.1,031.2,20.5,0000.0,0003.95,0009.03,0003.58
2023-08-16 11:59:00,SystemResetWarning,0833.2,5.01,000.00,029.6,028.1,000.0,038.1,031.2,20.6,0000.0,0003.93,0009.01,0003.57
